| time (UTC) | temp F | wind direction | speed MPH | gust MPH | rain 1hr in | rain 24hr in | rain mn in | humidity % | barometer mb |
| 20260510191038 | 61 | 188 | 1.0 | 3.0 | 0.00 | 0.00 | 0.00 | 59 | 1017.6 |
| 20260510190526 | 60 | 207 | 1.0 | 3.0 | 0.00 | 0.00 | 0.00 | 62 | 1017.6 |
| 20260510190028 | 59 | 210 | 2.0 | 3.0 | 0.00 | 0.00 | 0.00 | 71 | 1017.7 |
| 20260510185530 | 59 | 210 | 1.0 | 3.0 | 0.00 | 0.00 | 0.00 | 73 | 1017.5 |
| 20260510185018 | 60 | 186 | 0.0 | 2.0 | 0.00 | 0.00 | 0.00 | 72 | 1017.6 |
| 20260510184537 | 60 | 182 | 0.0 | 2.0 | 0.00 | 0.00 | 0.00 | 71 | 1017.7 |
| 20260510184027 | 60 | 170 | 0.0 | 3.0 | 0.00 | 0.00 | 0.00 | 69 | 1017.8 |
| 20260510183519 | 60 | 159 | 1.0 | 3.0 | 0.00 | 0.00 | 0.00 | 66 | 1017.9 |
| 20260510183037 | 61 | 173 | 0.0 | 0.0 | 0.00 | 0.00 | 0.00 | 65 | 1017.9 |
| 20260510182524 | 62 | 174 | 0.0 | 2.0 | 0.00 | 0.00 | 0.00 | 62 | 1018.0 |
| 20260510182037 | 60 | 174 | 1.0 | 3.0 | 0.00 | 0.00 | 0.00 | 69 | 1018.0 |
| 20260510181529 | 60 | 166 | 1.0 | 3.0 | 0.00 | 0.00 | 0.00 | 72 | 1018.0 |
| 20260510181021 | 60 | 168 | 1.0 | 3.0 | 0.00 | 0.00 | 0.00 | 64 | 1018.1 |
| 20260510180529 | 59 | 169 | 1.0 | 3.0 | 0.00 | 0.00 | 0.00 | 66 | 1018.2 |
| 20260510180028 | 59 | 190 | 0.0 | 3.0 | 0.00 | 0.00 | 0.00 | 70 | 1018.1 |
| 20260510175536 | 60 | 175 | 0.0 | 0.0 | 0.00 | 0.00 | 0.00 | 66 | 1018.2 |
| 20260510175022 | 60 | 173 | 0.0 | 0.0 | 0.00 | 0.00 | 0.00 | 65 | 1018.1 |
| 20260510174520 | 60 | 173 | 0.0 | 0.0 | 0.00 | 0.00 | 0.00 | 66 | 1018.2 |
| 20260510174030 | 59 | 173 | 0.0 | 0.0 | 0.00 | 0.00 | 0.00 | 64 | 1018.2 |
| 20260510173539 | 58 | 173 | 0.0 | 0.0 | 0.00 | 0.00 | 0.00 | 67 | 1018.3 |
| 20260510173038 | 58 | 191 | 0.0 | 0.0 | 0.00 | 0.00 | 0.00 | 69 | 1018.4 |
| 20260510172527 | 58 | 183 | 0.0 | 0.0 | 0.00 | 0.00 | 0.00 | 69 | 1018.3 |
| 20260510172019 | 57 | 176 | 0.0 | 0.0 | 0.00 | 0.00 | 0.00 | 66 | 1018.5 |
| 20260510171539 | 57 | 189 | 0.0 | 0.0 | 0.00 | 0.00 | 0.00 | 71 | 1018.4 |
| 20260510171026 | 57 | 194 | 0.0 | 0.0 | 0.00 | 0.00 | 0.00 | 74 | 1018.5 |
| 20260510170534 | 57 | 184 | 0.0 | 0.0 | 0.00 | 0.00 | 0.00 | 74 | 1018.6 |
| 20260510170032 | 56 | 198 | 0.0 | 0.0 | 0.00 | 0.00 | 0.00 | 76 | 1018.6 |
| 20260510165520 | 56 | 204 | 0.0 | 1.0 | 0.00 | 0.00 | 0.00 | 78 | 1018.6 |
| 20260510165030 | 55 | 210 | 0.0 | 1.0 | 0.00 | 0.00 | 0.00 | 78 | 1018.6 |
| 20260510164525 | 55 | 173 | 0.0 | 2.0 | 0.00 | 0.00 | 0.00 | 79 | 1018.6 |
| 20260510164037 | 54 | 171 | 1.0 | 2.0 | 0.00 | 0.00 | 0.00 | 79 | 1018.7 |
| 20260510163531 | 54 | 174 | 1.0 | 2.0 | 0.00 | 0.00 | 0.00 | 79 | 1018.7 |
| 20260510163026 | 54 | 172 | 1.0 | 3.0 | 0.00 | 0.00 | 0.00 | 80 | 1018.8 |
| 20260510162531 | 54 | 170 | 0.0 | 0.0 | 0.00 | 0.00 | 0.00 | 79 | 1018.8 |
| 20260510162024 | 54 | 182 | 0.0 | 0.0 | 0.00 | 0.00 | 0.00 | 79 | 1018.9 |
| 20260510161522 | 54 | 182 | 0.0 | 0.0 | 0.00 | 0.00 | 0.00 | 79 | 1019.0 |
| 20260510161032 | 54 | 179 | 0.0 | 0.0 | 0.00 | 0.00 | 0.00 | 79 | 1019.1 |
| 20260510160521 | 54 | 178 | 0.0 | 0.0 | 0.00 | 0.00 | 0.00 | 79 | 1019.1 |
| 20260510160038 | 53 | 169 | 0.0 | 0.0 | 0.00 | 0.00 | 0.00 | 80 | 1019.2 |
| 20260510155530 | 53 | 161 | 0.0 | 0.0 | 0.00 | 0.00 | 0.00 | 79 | 1019.3 |
| 20260510155036 | 53 | 157 | 0.0 | 0.0 | 0.00 | 0.00 | 0.00 | 79 | 1019.2 |
| 20260510154532 | 54 | 163 | 0.0 | 0.0 | 0.00 | 0.00 | 0.00 | 78 | 1019.2 |
| 20260510154020 | 53 | 189 | 0.0 | 0.0 | 0.00 | 0.00 | 0.00 | 80 | 1019.4 |
| 20260510153534 | 52 | 161 | 0.0 | 0.0 | 0.00 | 0.00 | 0.00 | 81 | 1019.3 |
| 20260510153034 | 52 | 152 | 0.0 | 0.0 | 0.00 | 0.00 | 0.00 | 81 | 1019.3 |
| 20260510152536 | 52 | 186 | 0.0 | 0.0 | 0.00 | 0.00 | 0.00 | 82 | 1019.4 |
| 20260510152026 | 51 | 159 | 0.0 | 0.0 | 0.00 | 0.00 | 0.00 | 81 | 1019.4 |
| 20260510151522 | 51 | 155 | 0.0 | 0.0 | 0.00 | 0.00 | 0.00 | 82 | 1019.5 |
| 20260510151032 | 51 | 184 | 0.0 | 0.0 | 0.00 | 0.00 | 0.00 | 83 | 1019.5 |
| 20260510150526 | 51 | 187 | 0.0 | 0.0 | 0.00 | 0.00 | 0.00 | 83 | 1019.4 |
| 20260510150032 | 51 | 169 | 0.0 | 0.0 | 0.00 | 0.00 | 0.00 | 83 | 1019.4 |
| 20260510145530 | 51 | 175 | 0.0 | 0.0 | 0.00 | 0.00 | 0.00 | 83 | 1019.4 |
| 20260510145024 | 50 | 179 | 0.0 | 0.0 | 0.00 | 0.00 | 0.00 | 83 | 1019.4 |
| 20260510144538 | 50 | 176 | 0.0 | 0.0 | 0.00 | 0.00 | 0.00 | 85 | 1019.3 |
| 20260510144028 | 50 | 182 | 0.0 | 0.0 | 0.00 | 0.00 | 0.00 | 87 | 1019.4 |
| 20260510143535 | 50 | 219 | 0.0 | 0.0 | 0.00 | 0.00 | 0.00 | 87 | 1019.5 |
| 20260510143033 | 50 | 223 | 0.0 | 0.0 | 0.00 | 0.00 | 0.00 | 88 | 1019.4 |
| 20260510142523 | 49 | 226 | 0.0 | 0.0 | 0.00 | 0.00 | 0.00 | 88 | 1019.5 |
| 20260510142034 | 49 | 232 | 0.0 | 0.0 | 0.00 | 0.00 | 0.00 | 88 | 1019.4 |
| 20260510141533 | 49 | 232 | 0.0 | 0.0 | 0.00 | 0.00 | 0.00 | 89 | 1019.4 |
| 20260510141020 | 49 | 238 | 0.0 | 0.0 | 0.00 | 0.00 | 0.00 | 89 | 1019.4 |
| 20260510140530 | 48 | 238 | 0.0 | 0.0 | 0.00 | 0.00 | 0.00 | 89 | 1019.5 |
| 20260510140028 | 48 | 240 | 0.0 | 0.0 | 0.00 | 0.00 | 0.00 | 90 | 1019.6 |
| 20260510135524 | 47 | 232 | 0.0 | 0.0 | 0.00 | 0.00 | 0.00 | 89 | 1019.5 |
| 20260510135031 | 47 | 238 | 0.0 | 0.0 | 0.00 | 0.00 | 0.00 | 89 | 1019.5 |
| 20260510134528 | 47 | 236 | 0.0 | 0.0 | 0.00 | 0.00 | 0.00 | 89 | 1019.5 |
| 20260510134039 | 46 | 236 | 0.0 | 0.0 | 0.00 | 0.00 | 0.00 | 91 | 1019.4 |
| 20260510133526 | 46 | 226 | 0.0 | 0.0 | 0.00 | 0.00 | 0.00 | 91 | 1019.4 |
| 20260510133024 | 45 | 245 | 0.0 | 3.0 | 0.00 | 0.00 | 0.00 | 92 | 1019.3 |
| 20260510132532 | 45 | 242 | 0.0 | 4.0 | 0.00 | 0.00 | 0.00 | 92 | 1019.5 |
| 20260510132024 | 45 | 247 | 1.0 | 4.0 | 0.00 | 0.00 | 0.00 | 92 | 1019.6 |
| 20260510131519 | 46 | 225 | 0.0 | 3.0 | 0.00 | 0.00 | 0.00 | 93 | 1019.5 |
| 20260510131030 | 45 | 269 | 0.0 | 0.0 | 0.00 | 0.00 | 0.00 | 93 | 1019.5 |
| 20260510130538 | 45 | 242 | 0.0 | 3.0 | 0.00 | 0.00 | 0.00 | 93 | 1019.4 |
| 20260510130033 | 45 | 286 | 0.0 | 4.0 | 0.00 | 0.00 | 0.00 | 92 | 1019.5 |
| 20260510125524 | 45 | 273 | 2.0 | 4.0 | 0.00 | 0.00 | 0.00 | 92 | 1019.4 |
| 20260510125035 | 45 | 259 | 0.0 | 1.0 | 0.00 | 0.00 | 0.00 | 92 | 1019.4 |
| 20260510124532 | 45 | 241 | 0.0 | 1.0 | 0.00 | 0.00 | 0.00 | 92 | 1019.5 |
| 20260510124025 | 45 | 265 | 0.0 | 1.0 | 0.00 | 0.00 | 0.00 | 92 | 1019.5 |
| 20260510123531 | 45 | 258 | 0.0 | 3.0 | 0.00 | 0.00 | 0.00 | 92 | 1019.5 |
| 20260510123028 | 45 | 267 | 0.0 | 3.0 | 0.00 | 0.00 | 0.00 | 92 | 1019.7 |
| 20260510122538 | 45 | 240 | 0.0 | 3.0 | 0.00 | 0.00 | 0.00 | 92 | 1019.5 |
| 20260510122026 | 45 | 244 | 0.0 | 3.0 | 0.00 | 0.00 | 0.00 | 92 | 1019.7 |
| 20260510121524 | 45 | 246 | 0.0 | 3.0 | 0.00 | 0.00 | 0.00 | 92 | 1019.6 |
| 20260510121035 | 45 | 256 | 0.0 | 3.0 | 0.00 | 0.00 | 0.00 | 92 | 1019.6 |
| 20260510120525 | 45 | 281 | 1.0 | 3.0 | 0.00 | 0.00 | 0.00 | 92 | 1019.7 |
| 20260510120037 | 45 | 259 | 0.0 | 2.0 | 0.00 | 0.00 | 0.00 | 92 | 1019.6 |
| 20260510115528 | 45 | 268 | 0.0 | 3.0 | 0.00 | 0.00 | 0.00 | 92 | 1019.6 |
| 20260510115038 | 45 | 250 | 0.0 | 3.0 | 0.00 | 0.00 | 0.00 | 92 | 1019.6 |
| 20260510114537 | 46 | 276 | 1.0 | 3.0 | 0.00 | 0.00 | 0.00 | 91 | 1019.7 |
| 20260510114025 | 46 | 250 | 1.0 | 2.0 | 0.00 | 0.00 | 0.00 | 92 | 1019.7 |
| 20260510113536 | 46 | 252 | 0.0 | 1.0 | 0.00 | 0.00 | 0.00 | 92 | 1019.7 |
| 20260510113035 | 46 | 252 | 0.0 | 1.0 | 0.00 | 0.00 | 0.00 | 92 | 1019.7 |
| 20260510112520 | 46 | 252 | 0.0 | 2.0 | 0.00 | 0.00 | 0.00 | 91 | 1019.8 |
| 20260510112029 | 45 | 252 | 0.0 | 2.0 | 0.00 | 0.00 | 0.00 | 91 | 1019.7 |
| 20260510111525 | 46 | 245 | 0.0 | 2.0 | 0.00 | 0.00 | 0.00 | 91 | 1019.7 |
| 20260510111032 | 46 | 255 | 1.0 | 5.0 | 0.00 | 0.00 | 0.00 | 91 | 1019.8 |
| 20260510110522 | 46 | 241 | 2.0 | 5.0 | 0.00 | 0.00 | 0.00 | 91 | 1019.9 |
| 20260510110018 | 46 | 261 | 1.0 | 3.0 | 0.00 | 0.00 | 0.00 | 91 | 1019.8 |
| 20260510105529 | 46 | 258 | 0.0 | 3.0 | 0.00 | 0.00 | 0.00 | 91 | 1019.8 |
| 20260510105021 | 46 | 247 | 0.0 | 2.0 | 0.00 | 0.00 | 0.00 | 91 | 1019.8 |
| 20260510104537 | 46 | 242 | 0.0 | 0.0 | 0.00 | 0.00 | 0.00 | 91 | 1019.8 |
| 20260510104020 | 46 | 270 | 0.0 | 2.0 | 0.00 | 0.00 | 0.00 | 91 | 1019.8 |
| 20260510103532 | 46 | 267 | 0.0 | 3.0 | 0.00 | 0.00 | 0.00 | 91 | 1019.9 |
| 20260510103029 | 46 | 255 | 1.0 | 4.0 | 0.00 | 0.00 | 0.00 | 90 | 1019.7 |
| 20260510102521 | 46 | 240 | 1.0 | 4.0 | 0.00 | 0.00 | 0.00 | 90 | 1019.7 |
| 20260510102030 | 47 | 257 | 0.0 | 3.0 | 0.00 | 0.00 | 0.00 | 90 | 1019.7 |
| 20260510101528 | 46 | 242 | 0.0 | 3.0 | 0.00 | 0.00 | 0.00 | 90 | 1019.8 |
| 20260510101035 | 46 | 238 | 1.0 | 5.0 | 0.00 | 0.00 | 0.00 | 89 | 1019.8 |
| 20260510100525 | 46 | 246 | 2.0 | 5.0 | 0.00 | 0.00 | 0.00 | 89 | 1019.7 |
| 20260510100022 | 46 | 240 | 2.0 | 5.0 | 0.00 | 0.00 | 0.00 | 89 | 1019.8 |
| 20260510095531 | 47 | 250 | 3.0 | 5.0 | 0.00 | 0.00 | 0.00 | 89 | 1019.9 |
| 20260510095019 | 47 | 245 | 1.0 | 3.0 | 0.00 | 0.00 | 0.00 | 89 | 1019.9 |
| 20260510094543 | 47 | 257 | 1.0 | 4.0 | 0.00 | 0.00 | 0.00 | 89 | 1019.9 |
| 20260510094027 | 47 | 229 | 2.0 | 4.0 | 0.00 | 0.00 | 0.00 | 90 | 1019.9 |
| 20260510093536 | 47 | 229 | 2.0 | 4.0 | 0.00 | 0.00 | 0.00 | 89 | 1019.9 |
| 20260510093035 | 47 | 235 | 1.0 | 3.0 | 0.00 | 0.00 | 0.00 | 89 | 1020.0 |
| 20260510092523 | 47 | 217 | 1.0 | 3.0 | 0.00 | 0.00 | 0.00 | 88 | 1020.1 |
| 20260510092038 | 47 | 229 | 1.0 | 3.0 | 0.00 | 0.00 | 0.00 | 89 | 1020.1 |
| 20260510091536 | 47 | 242 | 0.0 | 2.0 | 0.00 | 0.00 | 0.00 | 89 | 1020.2 |
| 20260510091024 | 47 | 236 | 0.0 | 4.0 | 0.00 | 0.00 | 0.00 | 88 | 1020.2 |
| 20260510090536 | 47 | 245 | 0.0 | 5.0 | 0.00 | 0.00 | 0.00 | 87 | 1020.4 |
| 20260510090030 | 48 | 251 | 2.0 | 5.0 | 0.00 | 0.00 | 0.00 | 86 | 1020.4 |
| 20260510085537 | 48 | 242 | 2.0 | 4.0 | 0.00 | 0.00 | 0.00 | 87 | 1020.4 |
| 20260510085026 | 48 | 210 | 1.0 | 3.0 | 0.00 | 0.00 | 0.00 | 87 | 1020.6 |
| 20260510084523 | 48 | 230 | 0.0 | 4.0 | 0.00 | 0.00 | 0.00 | 87 | 1020.5 |
| 20260510084034 | 48 | 225 | 1.0 | 5.0 | 0.00 | 0.00 | 0.00 | 86 | 1020.4 |
| 20260510083523 | 49 | 232 | 2.0 | 5.0 | 0.00 | 0.00 | 0.00 | 85 | 1020.5 |
| 20260510083021 | 49 | 205 | 2.0 | 3.0 | 0.00 | 0.00 | 0.00 | 85 | 1020.4 |
| 20260510082527 | 49 | 213 | 1.0 | 4.0 | 0.00 | 0.00 | 0.00 | 84 | 1020.5 |
| 20260510082038 | 50 | 219 | 1.0 | 4.0 | 0.00 | 0.00 | 0.00 | 83 | 1020.6 |
| 20260510081539 | 50 | 176 | 1.0 | 3.0 | 0.00 | 0.00 | 0.00 | 86 | 1020.6 |
| 20260510081025 | 50 | 183 | 0.0 | 0.0 | 0.00 | 0.00 | 0.00 | 85 | 1020.6 |
| 20260510080539 | 49 | 245 | 0.0 | 1.0 | 0.00 | 0.00 | 0.00 | 85 | 1020.6 |
| 20260510080033 | 48 | 225 | 0.0 | 3.0 | 0.00 | 0.00 | 0.00 | 84 | 1020.5 |
| 20260510075521 | 48 | 226 | 1.0 | 4.0 | 0.00 | 0.00 | 0.00 | 84 | 1020.6 |
| 20260510075029 | 48 | 219 | 0.0 | 6.0 | 0.00 | 0.00 | 0.00 | 85 | 1020.6 |
| 20260510074526 | 48 | 234 | 2.0 | 7.0 | 0.00 | 0.00 | 0.00 | 85 | 1020.7 |
| 20260510074037 | 48 | 229 | 4.0 | 8.0 | 0.00 | 0.00 | 0.00 | 84 | 1020.8 |
| 20260510073528 | 48 | 20 | 1.0 | 3.0 | 0.00 | 0.00 | 0.00 | 84 | 1020.7 |
| 20260510073019 | 49 | 300 | 0.0 | 6.0 | 0.00 | 0.00 | 0.00 | 83 | 1020.6 |
| 20260510072531 | 50 | 281 | 1.0 | 8.0 | 0.00 | 0.00 | 0.00 | 81 | 1020.6 |
| 20260510072021 | 51 | 210 | 3.0 | 8.0 | 0.00 | 0.00 | 0.00 | 81 | 1020.6 |
| 20260510071537 | 51 | 215 | 2.0 | 5.0 | 0.00 | 0.00 | 0.00 | 80 | 1020.6 |
| 20260510071025 | 52 | 178 | 2.0 | 5.0 | 0.00 | 0.00 | 0.00 | 79 | 1020.4 |
| 20260510070520 | 52 | 91 | 1.0 | 4.0 | 0.00 | 0.00 | 0.00 | 80 | 1020.5 |
| 20260510070036 | 52 | 24 | 0.0 | 3.0 | 0.00 | 0.00 | 0.00 | 79 | 1020.6 |
| 20260510065527 | 52 | 45 | 0.0 | 5.0 | 0.00 | 0.00 | 0.00 | 81 | 1020.6 |
| 20260510065035 | 51 | 169 | 2.0 | 6.0 | 0.00 | 0.00 | 0.00 | 82 | 1020.6 |
| 20260510064530 | 51 | 199 | 0.0 | 0.0 | 0.00 | 0.00 | 0.00 | 82 | 1020.6 |
| 20260510064021 | 50 | 240 | 0.0 | 1.0 | 0.00 | 0.00 | 0.00 | 81 | 1020.7 |
| 20260510063530 | 50 | 240 | 0.0 | 3.0 | 0.00 | 0.00 | 0.00 | 80 | 1020.8 |
| 20260510063028 | 50 | 230 | 0.0 | 5.0 | 0.00 | 0.00 | 0.00 | 80 | 1020.8 |
| 20260510062536 | 50 | 213 | 2.0 | 5.0 | 0.00 | 0.00 | 0.00 | 80 | 1021.1 |
| 20260510062028 | 51 | 259 | 0.0 | 5.0 | 0.00 | 0.00 | 0.00 | 80 | 1021.2 |
| 20260510061527 | 51 | 253 | 1.0 | 5.0 | 0.00 | 0.00 | 0.00 | 80 | 1021.1 |
| 20260510061032 | 51 | 244 | 1.0 | 7.0 | 0.00 | 0.00 | 0.00 | 80 | 1021.0 |
| 20260510060543 | 51 | 242 | 2.0 | 7.0 | 0.00 | 0.00 | 0.00 | 79 | 1021.0 |
| 20260510060031 | 52 | 234 | 1.0 | 5.0 | 0.00 | 0.00 | 0.00 | 79 | 1021.0 |
| 20260510055522 | 51 | 252 | 2.0 | 5.0 | 0.00 | 0.00 | 0.00 | 80 | 1020.9 |
| 20260510055033 | 52 | 242 | 1.0 | 4.0 | 0.00 | 0.00 | 0.00 | 80 | 1021.0 |
| 20260510054538 | 52 | 221 | 1.0 | 4.0 | 0.00 | 0.00 | 0.00 | 79 | 1021.1 |
| 20260510054018 | 52 | 218 | 1.0 | 4.0 | 0.00 | 0.00 | 0.00 | 79 | 1021.1 |
| 20260510053530 | 52 | 224 | 2.0 | 5.0 | 0.00 | 0.00 | 0.00 | 77 | 1021.0 |
| 20260510053023 | 52 | 225 | 2.0 | 5.0 | 0.00 | 0.00 | 0.00 | 76 | 1021.1 |
| 20260510052534 | 53 | 246 | 3.0 | 5.0 | 0.00 | 0.00 | 0.00 | 77 | 1021.1 |
| 20260510052023 | 54 | 229 | 0.0 | 4.0 | 0.00 | 0.00 | 0.00 | 76 | 1021.2 |
| 20260510051530 | 54 | 237 | 1.0 | 4.0 | 0.00 | 0.00 | 0.00 | 74 | 1021.1 |
| 20260510051029 | 55 | 246 | 1.0 | 4.0 | 0.00 | 0.00 | 0.00 | 73 | 1021.1 |
| 20260510050540 | 55 | 167 | 1.0 | 6.0 | 0.00 | 0.00 | 0.00 | 72 | 1021.1 |
| 20260510050041 | 56 | 163 | 1.0 | 6.0 | 0.00 | 0.00 | 0.00 | 71 | 1021.2 |
| 20260510045526 | 56 | 31 | 0.0 | 3.0 | 0.00 | 0.00 | 0.00 | 74 | 1021.3 |
| 20260510045034 | 56 | 300 | 1.0 | 3.0 | 0.00 | 0.00 | 0.00 | 75 | 1021.3 |
| 20260510044535 | 56 | 219 | 0.0 | 4.0 | 0.00 | 0.00 | 0.00 | 74 | 1021.2 |
| 20260510044022 | 56 | 212 | 2.0 | 4.0 | 0.00 | 0.00 | 0.00 | 72 | 1021.3 |
| 20260510043532 | 56 | 180 | 0.0 | 3.0 | 0.00 | 0.00 | 0.00 | 72 | 1021.3 |
| 20260510043031 | 56 | 227 | 0.0 | 0.0 | 0.00 | 0.00 | 0.00 | 73 | 1021.3 |
| 20260510042539 | 56 | 242 | 0.0 | 3.0 | 0.00 | 0.00 | 0.00 | 73 | 1021.3 |
| 20260510042026 | 56 | 247 | 0.0 | 3.0 | 0.00 | 0.00 | 0.00 | 73 | 1021.4 |
| 20260510041525 | 57 | 261 | 0.0 | 2.0 | 0.00 | 0.00 | 0.00 | 70 | 1021.5 |
| 20260510041032 | 57 | 220 | 0.0 | 3.0 | 0.00 | 0.00 | 0.00 | 69 | 1021.4 |
| 20260510040522 | 57 | 219 | 0.0 | 3.0 | 0.00 | 0.00 | 0.00 | 71 | 1021.3 |
| 20260510040040 | 56 | 223 | 1.0 | 4.0 | 0.00 | 0.00 | 0.00 | 71 | 1021.2 |
| 20260510035526 | 57 | 229 | 2.0 | 4.0 | 0.00 | 0.00 | 0.00 | 69 | 1021.1 |
| 20260510035036 | 57 | 259 | 2.0 | 3.0 | 0.00 | 0.00 | 0.00 | 70 | 1021.2 |
| 20260510034531 | 57 | 256 | 1.0 | 4.0 | 0.00 | 0.00 | 0.00 | 70 | 1021.2 |
| 20260510034021 | 58 | 230 | 3.0 | 4.0 | 0.00 | 0.00 | 0.00 | 71 | 1021.1 |
| 20260510033530 | 58 | 238 | 0.0 | 0.0 | 0.00 | 0.00 | 0.00 | 69 | 1021.0 |
| 20260510033027 | 59 | 241 | 0.0 | 0.0 | 0.00 | 0.00 | 0.00 | 67 | 1021.0 |
| 20260510032519 | 59 | 163 | 0.0 | 0.0 | 0.00 | 0.00 | 0.00 | 64 | 1020.8 |
| 20260510032029 | 60 | 159 | 0.0 | 0.0 | 0.00 | 0.00 | 0.00 | 65 | 1020.8 |
| 20260510031545 | 61 | 151 | 0.0 | 0.0 | 0.00 | 0.00 | 0.00 | 58 | 1020.8 |
| 20260510031037 | 62 | 151 | 0.0 | 0.0 | 0.00 | 0.00 | 0.00 | 54 | 1020.8 |
| 20260510030524 | 62 | 151 | 0.0 | 0.0 | 0.00 | 0.00 | 0.00 | 52 | 1020.8 |
| 20260510030018 | 63 | 151 | 0.0 | 0.0 | 0.00 | 0.00 | 0.00 | 50 | 1020.6 |
| 20260510025529 | 63 | 151 | 0.0 | 0.0 | 0.00 | 0.00 | 0.00 | 52 | 1020.6 |
| 20260510025036 | 63 | 162 | 0.0 | 0.0 | 0.00 | 0.00 | 0.00 | 51 | 1020.7 |
| 20260510024538 | 63 | 169 | 0.0 | 0.0 | 0.00 | 0.00 | 0.00 | 49 | 1020.7 |
| 20260510024022 | 64 | 169 | 0.0 | 0.0 | 0.00 | 0.00 | 0.00 | 48 | 1020.8 |
| 20260510023533 | 64 | 169 | 0.0 | 0.0 | 0.00 | 0.00 | 0.00 | 48 | 1020.9 |
| 20260510023027 | 64 | 169 | 0.0 | 0.0 | 0.00 | 0.00 | 0.00 | 46 | 1020.9 |
| 20260510022537 | 64 | 169 | 0.0 | 1.0 | 0.00 | 0.00 | 0.00 | 47 | 1020.9 |
| 20260510022029 | 64 | 178 | 0.0 | 1.0 | 0.00 | 0.00 | 0.00 | 48 | 1021.0 |
| 20260510021531 | 64 | 175 | 0.0 | 1.0 | 0.00 | 0.00 | 0.00 | 49 | 1021.0 |
| 20260510021034 | 65 | 178 | 0.0 | 2.0 | 0.00 | 0.00 | 0.00 | 49 | 1021.1 |
| 20260510020524 | 66 | 169 | 0.0 | 3.0 | 0.00 | 0.00 | 0.00 | 44 | 1021.1 |
| 20260510020022 | 65 | 173 | 1.0 | 3.0 | 0.00 | 0.00 | 0.00 | 44 | 1021.0 |
| 20260510015532 | 65 | 173 | 0.0 | 2.0 | 0.00 | 0.00 | 0.00 | 48 | 1021.0 |
| 20260510015019 | 65 | 178 | 0.0 | 0.0 | 0.00 | 0.00 | 0.00 | 47 | 1021.1 |
| 20260510014534 | 66 | 192 | 0.0 | 1.0 | 0.00 | 0.00 | 0.00 | 45 | 1021.1 |
| 20260510014025 | 66 | 188 | 0.0 | 2.0 | 0.00 | 0.00 | 0.00 | 44 | 1021.1 |
| 20260510013536 | 67 | 102 | 0.0 | 2.0 | 0.00 | 0.00 | 0.00 | 44 | 1021.0 |
| 20260510013029 | 67 | 261 | 0.0 | 1.0 | 0.00 | 0.00 | 0.00 | 43 | 1021.0 |
| 20260510012520 | 67 | 173 | 0.0 | 1.0 | 0.00 | 0.00 | 0.00 | 44 | 1021.0 |
| 20260510012029 | 67 | 172 | 0.0 | 0.0 | 0.00 | 0.00 | 0.00 | 43 | 1021.1 |
| 20260510011524 | 67 | 221 | 0.0 | 0.0 | 0.00 | 0.00 | 0.00 | 41 | 1021.1 |
| 20260510011019 | 67 | 169 | 0.0 | 2.0 | 0.00 | 0.00 | 0.00 | 41 | 1021.1 |
| 20260510010526 | 68 | 184 | 0.0 | 0.0 | 0.00 | 0.00 | 0.00 | 41 | 1021.3 |
| 20260510010022 | 68 | 64 | 0.0 | 0.0 | 0.00 | 0.00 | 0.00 | 42 | 1021.4 |
| 20260510005532 | 67 | 168 | 0.0 | 0.0 | 0.00 | 0.00 | 0.00 | 43 | 1021.3 |
| 20260510005022 | 68 | 204 | 0.0 | 0.0 | 0.00 | 0.00 | 0.00 | 42 | 1021.4 |
| 20260510004544 | 68 | 281 | 0.0 | 2.0 | 0.00 | 0.00 | 0.00 | 42 | 1021.4 |
| 20260510004024 | 67 | 194 | 0.0 | 2.0 | 0.00 | 0.00 | 0.00 | 44 | 1021.5 |
| 20260510003535 | 67 | 286 | 0.0 | 2.0 | 0.00 | 0.00 | 0.00 | 42 | 1021.5 |
| 20260510003031 | 68 | 111 | 1.0 | 2.0 | 0.00 | 0.00 | 0.00 | 42 | 1021.5 |
| 20260510002521 | 68 | 174 | 0.0 | 1.0 | 0.00 | 0.00 | 0.00 | 41 | 1021.5 |
| 20260510002028 | 68 | 185 | 0.0 | 5.0 | 0.00 | 0.00 | 0.00 | 45 | 1021.5 |
| 20260510001524 | 67 | 222 | 1.0 | 5.0 | 0.00 | 0.00 | 0.00 | 43 | 1021.5 |
| 20260510001034 | 67 | 121 | 1.0 | 5.0 | 0.00 | 0.00 | 0.00 | 43 | 1021.4 |
| 20260510000524 | 67 | 76 | 1.0 | 5.0 | 0.00 | 0.00 | 0.00 | 42 | 1021.5 |
| 20260510000022 | 66 | 249 | 0.0 | 3.0 | 0.00 | 0.00 | 0.00 | 46 | 1021.4 |
| 20260509235531 | 66 | 121 | 0.0 | 3.0 | 0.00 | 0.00 | 0.00 | 47 | 1021.5 |
| 20260509235021 | 66 | 350 | 0.0 | 3.0 | 0.00 | 0.00 | 0.00 | 49 | 1021.6 |
| 20260509234519 | 66 | 124 | 0.0 | 5.0 | 0.00 | 0.00 | 0.00 | 48 | 1021.6 |
| 20260509234027 | 67 | 30 | 2.0 | 5.0 | 0.00 | 0.00 | 0.00 | 45 | 1021.6 |
| 20260509233536 | 67 | 131 | 1.0 | 4.0 | 0.00 | 0.00 | 0.00 | 45 | 1021.6 |
| 20260509233035 | 68 | 140 | 1.0 | 3.0 | 0.00 | 0.00 | 0.00 | 43 | 1021.6 |
| 20260509232524 | 68 | 60 | 0.0 | 4.0 | 0.00 | 0.00 | 0.00 | 44 | 1021.6 |
| 20260509232033 | 67 | 218 | 1.0 | 4.0 | 0.00 | 0.00 | 0.00 | 45 | 1021.6 |
| 20260509231528 | 67 | 77 | 1.0 | 4.0 | 0.00 | 0.00 | 0.00 | 46 | 1021.6 |
| 20260509231036 | 67 | 202 | 1.0 | 4.0 | 0.00 | 0.00 | 0.00 | 44 | 1021.5 |
| 20260509230526 | 67 | 317 | 1.0 | 4.0 | 0.00 | 0.00 | 0.00 | 44 | 1021.6 |
| 20260509230021 | 67 | 333 | 0.0 | 4.0 | 0.00 | 0.00 | 0.00 | 44 | 1021.7 |
| 20260509225534 | 67 | 302 | 1.0 | 6.0 | 0.00 | 0.00 | 0.00 | 43 | 1021.6 |
| 20260509225024 | 67 | 19 | 0.0 | 6.0 | 0.00 | 0.00 | 0.00 | 45 | 1021.7 |
| 20260509224522 | 67 | 332 | 1.0 | 6.0 | 0.00 | 0.00 | 0.00 | 42 | 1021.7 |
| 20260509224030 | 67 | 91 | 1.0 | 6.0 | 0.00 | 0.00 | 0.00 | 45 | 1021.7 |
| 20260509223520 | 67 | 45 | 1.0 | 7.0 | 0.00 | 0.00 | 0.00 | 43 | 1021.7 |
| 20260509223020 | 67 | 309 | 1.0 | 7.0 | 0.00 | 0.00 | 0.00 | 47 | 1021.8 |
| 20260509222532 | 67 | 327 | 1.0 | 3.0 | 0.00 | 0.00 | 0.00 | 44 | 1021.8 |
| 20260509222037 | 67 | 336 | 1.0 | 4.0 | 0.00 | 0.00 | 0.00 | 45 | 1021.8 |
| 20260509221533 | 67 | 355 | 1.0 | 6.0 | 0.00 | 0.00 | 0.00 | 43 | 1021.9 |
| 20260509221022 | 67 | 330 | 1.0 | 4.0 | 0.00 | 0.00 | 0.00 | 46 | 1022.0 |
| 20260509220531 | 66 | 317 | 1.0 | 4.0 | 0.00 | 0.00 | 0.00 | 46 | 1022.0 |
| 20260509220028 | 67 | 173 | 1.0 | 4.0 | 0.00 | 0.00 | 0.00 | 46 | 1022.1 |
| 20260509215519 | 67 | 355 | 1.0 | 6.0 | 0.00 | 0.00 | 0.00 | 45 | 1022.2 |
| 20260509215027 | 67 | 38 | 1.0 | 6.0 | 0.00 | 0.00 | 0.00 | 43 | 1022.3 |
| 20260509214523 | 67 | 347 | 1.0 | 2.0 | 0.00 | 0.00 | 0.00 | 45 | 1022.5 |
| 20260509214018 | 67 | 115 | 1.0 | 4.0 | 0.00 | 0.00 | 0.00 | 44 | 1022.5 |
| 20260509213530 | 67 | 173 | 1.0 | 4.0 | 0.00 | 0.00 | 0.00 | 43 | 1022.6 |
| 20260509213025 | 66 | 12 | 0.0 | 5.0 | 0.00 | 0.00 | 0.00 | 47 | 1022.6 |
| 20260509212535 | 66 | 182 | 1.0 | 5.0 | 0.00 | 0.00 | 0.00 | 44 | 1022.6 |
| 20260509212026 | 66 | 126 | 1.0 | 4.0 | 0.00 | 0.00 | 0.00 | 46 | 1022.6 |
| 20260509211526 | 66 | 303 | 1.0 | 7.0 | 0.00 | 0.00 | 0.00 | 46 | 1022.6 |
| 20260509211033 | 65 | 336 | 1.0 | 7.0 | 0.00 | 0.00 | 0.00 | 47 | 1022.7 |
| 20260509210523 | 65 | 311 | 1.0 | 3.0 | 0.00 | 0.00 | 0.00 | 46 | 1022.8 |
| 20260509210019 | 65 | 163 | 1.0 | 4.0 | 0.00 | 0.00 | 0.00 | 48 | 1022.8 |
| 20260509205528 | 65 | 108 | 1.0 | 5.0 | 0.00 | 0.00 | 0.00 | 49 | 1022.8 |
| 20260509205021 | 65 | 15 | 1.0 | 5.0 | 0.00 | 0.00 | 0.00 | 49 | 1022.8 |
| 20260509204534 | 65 | 71 | 1.0 | 3.0 | 0.00 | 0.00 | 0.00 | 47 | 1022.8 |
| 20260509204025 | 65 | 53 | 1.0 | 4.0 | 0.00 | 0.00 | 0.00 | 50 | 1022.8 |
| 20260509203533 | 64 | 274 | 2.0 | 5.0 | 0.00 | 0.00 | 0.00 | 52 | 1022.9 |
| 20260509203031 | 64 | 317 | 1.0 | 4.0 | 0.00 | 0.00 | 0.00 | 50 | 1022.9 |
| 20260509202527 | 64 | 342 | 1.0 | 9.0 | 0.00 | 0.00 | 0.00 | 48 | 1022.9 |
| 20260509202032 | 64 | 78 | 2.0 | 9.0 | 0.00 | 0.00 | 0.00 | 51 | 1023.0 |
| 20260509201529 | 64 | 345 | 1.0 | 5.0 | 0.00 | 0.00 | 0.00 | 53 | 1023.2 |
| 20260509201018 | 64 | 49 | 1.0 | 7.0 | 0.00 | 0.00 | 0.00 | 53 | 1023.2 |
| 20260509200529 | 63 | 172 | 2.0 | 7.0 | 0.00 | 0.00 | 0.00 | 52 | 1023.3 |
| 20260509200030 | 63 | 342 | 1.0 | 8.0 | 0.00 | 0.00 | 0.00 | 54 | 1023.4 |
| 20260509195536 | 63 | 169 | 1.0 | 6.0 | 0.00 | 0.00 | 0.00 | 51 | 1023.4 |
| 20260509195023 | 63 | 326 | 1.0 | 4.0 | 0.00 | 0.00 | 0.00 | 54 | 1023.3 |
| 20260509194520 | 63 | 341 | 1.0 | 8.0 | 0.00 | 0.00 | 0.00 | 53 | 1023.5 |
| 20260509194031 | 63 | 92 | 2.0 | 8.0 | 0.00 | 0.00 | 0.00 | 53 | 1023.6 |
| 20260509193519 | 63 | 360 | 2.0 | 7.0 | 0.00 | 0.00 | 0.00 | 55 | 1023.6 |
| 20260509193035 | 62 | 342 | 2.0 | 7.0 | 0.00 | 0.00 | 0.00 | 54 | 1023.7 |
| 20260509192525 | 63 | 297 | 1.0 | 4.0 | 0.00 | 0.00 | 0.00 | 53 | 1023.8 |
| 20260509192037 | 62 | 80 | 1.0 | 5.0 | 0.00 | 0.00 | 0.00 | 53 | 1023.9 |
| 20260509191535 | 62 | 327 | 2.0 | 5.0 | 0.00 | 0.00 | 0.00 | 56 | 1023.9 |